Location: Poprad
(49.0500°N, 20.3000°E)
Time: 19:47:54
(UTC+02:00)

ITUPSAT 1 - Pass Details

Date: 25 April 2024
Orbit: 694 x 707 km, 98.5° (Epoch: 20 May)

Event Time Altitude Azimuth Distance (km) Brightness Sun altitude
Rises 00:28:13 0° 1° (N) 3,089 ? -27.7°
Reaches altitude 10° 00:31:17 10° 340° (NNW) 2,164 ? -27.7°
Maximum altitude 00:34:02 16° 304° (NW) 1,806 ? -27.7°
Enters shadow 00:36:14 12° 274° (W) 2,036 ? -27.7°
